Location: Conflandey
(47.7287°N, 6.0456°E)
Time: 04:09:01
(UTC+00:00)

Meteor 1-4 Rocket - Pass Details

Date: 24 October 2021
Orbit: 447 x 496 km, 81.2° (Epoch: 05 December)

Event Time Altitude Azimuth Distance (km) Brightness Sun altitude
Rises 18:30:25 0° 203° (SSW) 2,465 6.4 -20.7°
Reaches altitude 10° 18:32:33 10° 210° (SSW) 1,590 5.5 -21.0°
Maximum altitude 18:35:54 45° 285° (WNW) 624 3.5 -21.6°
Drops below altitude 10° 18:39:15 10° 360° (N) 1,589 5.2 -22.2°
Enters shadow 18:41:09 - 6° (N) 2,371 6.1 -22.5°
